Vertical_Velocity
2 -3 -0 -2 -1 -1 2 3 2 0 7 2 -1 -3 0 1 1 -1 -1 -1 1 -0 1 0 -0 1 1 1 0 -1 0 -0 -1 -2 -2 -3 -5 -3
-0 -2 -6 4 4 -1 7 6 -1 3 9 4 6 -3 2 2 -1 -4 -3 -3 -0 -1 -1 -2 -3 -2 -1 -1 -0 -1 -1 0 -1 -1 -0 -1 -1 -0
2 2 1 -4 -6 2 3 10 4 1 7 6 1 2 5 -5 -5 -4 -4 -4 -4 -1 -5 -7 -5 -4 -4 -3 -3 -2 -2 -1 -1 1 0 1 1 0
-1 1 0 -1 5 6 11 14 -11 -1 5 7 6 5 1 1 -3 1 -1 0 -3 1 -1 -3 -5 -4 -4 -4 -3 -3 -1 -0 -0 -0 1 3 1 -0
5 2 -0 11 2 5 -9 12 4 3 2 -2 -6 1 1 -0 -1 1 -2 1 0 1 -5 -3 -3 -3 -4 -5 -4 -3 -4 -3 0 1 0 1 2 2
9 3 3 7 4 3 3 3 2 -4 -1 -6 4 -1 -2 1 -3 -2 3 -6 -0 1 -3 -3 -3 -5 -1 -6 -5 -3 -2 -3 -4 -3 -2 0 0 1
5 9 7 3 -3 0 -1 -2 -11 -0 -3 2 1 -0 -1 0 -4 2 -2 -3 3 -0 -0 5 -6 0 3 -0 -2 -3 -5 -4 -3 -2 -1 -1 -1 -1
-1 -1 1 1 3 -1 -5 2 -1 2 -0 -2 1 2 -4 -1 2 -3 -3 -2 -6 9 -3 14 -8 9 -1 5 0 -1 -3 -2 -0 -2 -2 -3 1 -0
-2 4 1 -9 -1 1 -1 2 3 2 -3 -6 -3 -3 -0 -5 -0 -1 2 -4 -3 3 -9 6 -11 2 -1 2 0 -1 -4 -5 -3 -4 -2 0 1 -0
-4 -8 0 2 2 1 3 4 -1 -2 -3 0 0 1 -1 1 -3 -0 -2 -1 -0 -4 -10 -8 -2 1 -3 1 4 2 1 -9 -8 -6 -4 -2 -3 -2
2 4 2 3 2 -1 2 4 1 -1 -2 -2 -1 -1 -1 -1 -4 -1 -2 -4 0 3 4 -15 1 -3 -2 6 3 3 1 4 -1 -3 -3 -3 -3 -2
1 2 2 0 -1 -1 1 0 -1 -1 -1 -3 -4 -3 -1 -0 -3 -7 -5 -4 -6 -1 -7 -11 -0 -15 -5 6 3 -3 -4 3 0 -1 -2 -3 -2 -7
0 0 1 0 -0 -2 -4 -4 -3 0 0 2 0 -1 -4 -3 -3 -3 -3 -4 -1 -3 -4 -10 -5 -2 -7 -22 7 0 -1 4 -1 3 0 -1 -2 -3
2 1 -0 -2 -2 -2 -2 -2 -2 -3 -3 -3 -3 -1 -0 0 0 -1 -1 -5 -4 -5 -0 -5 -7 -6 -4 -1 -15 9 2 1 -5 0 -1 0 1 -2
-3 -2 -1 -2 -4 -3 -2 -3 -2 -1 1 -1 -1 -1 0 1 0 -1 0 -3 3 1 -2 -4 -5 -1 -4 -3 -11 -1 -9 6 1 -4 -1 1 2 2
-2 -3 -3 -2 -2 -3 -2 -1 -1 -1 -1 -0 -0 0 -1 1 1 -3 -1 -3 -2 9 4 -3 0 -2 -6 1 -4 -3 1 -14 0 -2 -6 0 -1 1
-2 -1 -1 -2 -3 -3 -3 -4 -2 -2 -4 -3 -3 -2 -2 -1 1 -2 -3 -1 -4 -9 3 7 4 -0 2 -4 -5 2 0 3 -1 -0 -5 3 6 1
-0 -1 -1 -1 -1 -3 -2 -2 -3 -2 -2 -3 -3 -3 -2 -2 -1 2 -3 -4 -3 2 1 -2 -2 5 8 14 -7 -0 7 -4 2 1 -1 -4 8 -1
-0 -0 -0 -2 -2 -0 -2 -0 -1 -2 -2 -2 -2 -2 -2 1 -1 -1 -1 -1 4 -1 4 1 -3 -5 -7 -5 15 0 -12 -3 -4 2 -7 -3 -3 5
-1 -1 -1 -1 -0 -2 -2 -2 -2 -2 -2 -2 -3 -2 -1 -3 -1 1 0 -3 0 2 3 5 -2 -4 -7 -11 -14 6 4 -4 -3 -0 0 8 3 6
-1 -0 -2 -1 -1 0 -2 -2 -2 -1 -0 0 -1 -2 -2 -3 1 0 0 3 0 1 1 2 0 2 -0 0 -1 4 13 6 -6 -11 -7 -5 -6 3
1 1 0 -2 -2 -1 -0 -0 -1 -2 -1 -1 -1 -1 0 -2 -1 0 1 -1 3 -1 -1 3 1 1 1 -5 -4 -3 -1 7 11 4 7 10 -9 -39
-1 0 1 1 0 -1 -0 -1 -1 -1 -1 0 0 0 -0 0 -1 0 0 3 -5 -2 -4 1 3 4 2 -4 -7 -6 -1 -1 -6 3 18 10 5 3
Height
3088 3089 3087 3084 3086 3084 3082 3080 3078 3075 3075 3075 3071 3069 3067 3063 3061 3058 3054 3050 3047 3044 3041 3038 3034 3030 3026 3023 3019 3015 3012 3009 3005 3002 3000 2998 2996 2994
3078 3079 3078 3077 3076 3073 3069 3068 3067 3064 3065 3064 3060 3059 3056 3054 3050 3046 3042 3037 3034 3031 3026 3022 3017 3012 3008 3004 3000 2997 2993 2990 2986 2984 2983 2981 2979 2978
3068 3068 3067 3066 3064 3062 3060 3055 3055 3052 3054 3052 3050 3047 3045 3041 3040 3036 3031 3026 3022 3018 3013 3007 3001 2996 2991 2987 2983 2979 2975 2972 2969 2969 2967 2965 2963 2963
3057 3057 3056 3055 3054 3052 3048 3046 3046 3046 3043 3041 3038 3037 3034 3030 3025 3022 3019 3014 3008 3004 2998 2992 2986 2981 2975 2971 2966 2962 2958 2956 2955 2953 2952 2952 2950 2950
3048 3048 3046 3043 3042 3041 3037 3037 3036 3034 3033 3028 3027 3026 3022 3018 3013 3009 3004 3000 2994 2989 2983 2975 2969 2965 2960 2956 2952 2947 2945 2943 2941 2939 2939 2938 2937 2937
3039 3039 3038 3036 3034 3033 3032 3031 3028 3024 3021 3018 3015 3012 3008 3003 2998 2993 2990 2984 2979 2975 2969 2961 2958 2954 2949 2944 2940 2937 2934 2931 2929 2927 2925 2924 2923 2922
3031 3028 3029 3027 3028 3026 3027 3023 3018 3017 3015 3008 3004 3000 2995 2990 2985 2980 2974 2968 2965 2963 2958 2953 2949 2945 2940 2934 2929 2926 2923 2919 2916 2913 2911 2910 2909 2908
3024 3024 3023 3022 3019 3018 3014 3011 3010 3007 3002 2997 2993 2989 2982 2978 2972 2967 2962 2957 2954 2954 2946 2943 2939 2934 2929 2924 2920 2916 2911 2907 2903 2900 2898 2897 2896 2895
3016 3018 3016 3012 3010 3008 3005 3002 2999 2994 2990 2986 2981 2976 2970 2966 2961 2957 2954 2949 2945 2943 2935 2929 2925 2920 2916 2913 2908 2904 2898 2895 2892 2889 2887 2885 2884 2883
3010 3009 3008 3006 3002 3000 2996 2993 2990 2985 2980 2974 2968 2963 2959 2956 2952 2948 2944 2940 2936 2933 2924 2916 2916 2911 2906 2902 2898 2893 2889 2883 2880 2877 2875 2874 2873 2871
3006 3005 3002 2999 2994 2989 2985 2983 2980 2974 2969 2964 2960 2957 2953 2949 2945 2941 2937 2931 2926 2926 2917 2907 2907 2900 2897 2893 2889 2884 2879 2875 2871 2867 2864 2861 2859 2857
3000 2996 2993 2989 2985 2979 2975 2971 2968 2964 2961 2957 2954 2951 2948 2944 2940 2935 2930 2924 2918 2915 2907 2900 2898 2890 2883 2884 2880 2875 2870 2865 2860 2856 2853 2850 2848 2845
2991 2987 2982 2977 2973 2969 2965 2962 2959 2957 2954 2953 2951 2948 2944 2940 2935 2930 2924 2919 2913 2909 2901 2890 2889 2884 2877 2870 2870 2866 2861 2856 2851 2848 2844 2840 2837 2833
2982 2976 2972 2967 2963 2960 2957 2955 2954 2952 2951 2948 2945 2942 2939 2935 2930 2926 2920 2915 2908 2900 2896 2887 2879 2876 2869 2864 2859 2858 2852 2847 2842 2838 2834 2831 2828 2825
2971 2967 2962 2959 2957 2955 2954 2952 2951 2949 2946 2943 2940 2937 2933 2929 2924 2920 2915 2910 2905 2897 2890 2882 2875 2870 2863 2857 2849 2848 2840 2840 2834 2828 2825 2822 2820 2817
2963 2959 2957 2955 2953 2952 2951 2950 2948 2945 2943 2940 2937 2933 2929 2925 2919 2913 2909 2903 2899 2895 2886 2878 2872 2864 2858 2852 2844 2840 2836 2827 2826 2821 2817 2815 2811 2807
2958 2955 2954 2953 2952 2951 2949 2947 2944 2942 2939 2936 2933 2929 2925 2920 2915 2908 2902 2897 2890 2884 2881 2874 2865 2858 2852 2846 2840 2834 2828 2824 2818 2814 2810 2807 2805 2799
2955 2953 2952 2951 2949 2948 2946 2944 2941 2939 2936 2932 2928 2924 2920 2915 2910 2904 2896 2890 2884 2878 2872 2865 2859 2852 2847 2842 2834 2828 2824 2818 2814 2810 2806 2802 2799 2795
2953 2952 2950 2949 2948 2946 2944 2942 2940 2937 2933 2929 2925 2920 2915 2910 2903 2898 2891 2884 2878 2872 2866 2859 2851 2843 2837 2832 2832 2823 2817 2814 2810 2807 2802 2797 2793 2790
2951 2949 2949 2948 2946 2944 2942 2940 2937 2933 2930 2925 2920 2916 2910 2904 2898 2892 2886 2878 2872 2865 2860 2854 2847 2840 2833 2826 2820 2821 2814 2809 2804 2800 2795 2791 2786 2781
2949 2948 2946 2945 2943 2941 2939 2936 2934 2930 2926 2922 2916 2910 2905 2899 2893 2886 2879 2874 2866 2860 2854 2849 2842 2836 2829 2823 2817 2814 2811 2804 2798 2793 2789 2783 2778 2773
2947 2946 2944 2942 2940 2938 2936 2933 2930 2926 2921 2917 2911 2906 2901 2895 2888 2881 2874 2867 2862 2855 2848 2842 2836 2830 2824 2818 2813 2808 2803 2800 2794 2789 2784 2779 2771 2763
2945 2943 2941 2939 2937 2935 2932 2929 2926 2922 2917 2913 2908 2903 2897 2891 2884 2877 2870 2863 2855 2848 2842 2835 2830 2824 2818 2812 2807 2801 2797 2792 2787 2782 2780 2771 2764 2755